Wind_Speed
29 30 27 26 26 26 26 26 25 24 24 23 21 20 18 17 17 16 15 16 16 16 15 15 15 15 15 16 15 16 16 15 15 14 14 13 13 12 12 11 11 11 10 10 10 9 8 8 8 8 7 7 7 7 6 6 6 6 7 6 7 7 8 8 8 9 12 13 14 15 15 16 18 18 19 21 23 26 28 28 28 29 29 29 30
30 29 26 26 27 27 27 26 25 25 25 23 21 21 20 18 18 17 16 17 16 16 16 16 16 16 16 16 16 16 15 15 15 14 14 14 13 13 12 11 12 11 11 10 9 9 9 9 8 8 8 7 7 7 6 6 5 5 6 6 6 7 7 7 8 9 12 15 16 15 15 16 17 18 19 21 24 26 27 28 29 29 28 29 30
30 27 26 27 28 28 27 26 27 27 27 25 23 22 21 19 18 18 18 18 17 17 17 17 17 17 17 16 16 16 16 15 14 14 15 14 14 13 12 12 12 11 11 10 9 9 8 8 8 7 8 8 8 7 6 6 6 5 5 5 5 6 6 7 8 9 12 14 15 16 16 16 17 18 18 20 23 25 26 29 30 30 28 28 29
28 27 27 28 28 28 27 27 28 28 27 26 24 23 22 20 18 18 18 18 18 18 18 18 18 18 17 17 17 17 16 16 15 15 15 14 13 13 13 12 12 11 11 10 9 9 8 8 8 7 7 8 7 6 5 5 5 5 5 5 6 7 7 8 9 10 12 14 15 16 16 16 17 17 19 21 22 23 25 28 31 30 28 29 29
28 27 29 29 28 28 28 29 29 28 28 27 25 23 21 20 19 18 19 19 19 19 19 18 18 18 18 18 17 17 17 16 16 15 15 14 14 14 13 12 12 11 11 10 9 9 8 8 7 7 7 7 7 6 5 5 6 6 6 7 7 8 9 9 10 11 12 14 15 15 15 16 16 16 19 21 23 24 24 27 30 30 28 29 30
27 28 29 30 30 29 29 30 29 28 28 27 25 24 21 20 20 19 19 20 20 19 19 19 19 18 18 18 18 18 17 17 17 16 15 15 14 14 14 13 12 12 11 10 10 9 8 8 7 7 7 7 7 5 4 4 5 6 6 7 8 8 10 11 11 12 12 14 14 14 15 15 16 17 19 20 22 24 25 26 29 31 29 29 31
29 29 30 31 31 30 29 30 30 29 28 27 26 24 21 20 20 19 20 20 20 20 20 19 19 19 18 18 18 18 18 17 17 16 16 16 15 15 15 14 13 12 12 11 10 9 9 8 8 8 9 8 7 6 5 3 3 5 5 6 7 8 10 11 12 13 14 15 14 13 15 15 15 18 19 19 21 23 25 26 28 31 31 30 30
30 30 31 30 30 30 29 29 29 28 29 29 27 23 20 20 20 20 21 21 21 21 20 20 19 19 19 19 18 18 18 18 18 17 17 16 16 16 15 15 14 13 12 11 11 10 9 9 9 10 10 9 8 8 8 6 5 3 2 3 4 7 9 10 12 13 14 16 14 13 14 15 15 18 18 19 21 22 25 25 26 29 31 31 30
31 31 30 30 30 30 30 29 28 28 29 29 26 23 20 20 21 21 21 21 21 21 20 20 20 19 19 19 19 19 18 18 18 18 18 18 17 17 16 16 15 14 13 12 11 10 10 10 9 8 8 7 6 6 7 7 5 3 2 3 4 4 6 8 10 12 14 16 14 13 14 14 16 18 18 19 21 23 25 26 26 27 29 30 31
32 30 30 31 30 29 29 29 28 28 29 28 26 24 21 20 21 21 21 21 21 21 20 20 20 20 20 19 19 19 18 18 19 19 19 19 18 17 17 16 15 15 14 13 12 10 9 8 7 7 8 8 8 8 7 7 6 5 5 6 6 6 6 6 8 10 13 14 14 14 14 13 16 17 16 18 21 23 25 25 26 27 27 26 27
32 31 30 30 30 29 29 29 28 29 28 28 26 25 23 21 21 22 21 21 22 21 21 21 20 20 20 20 20 19 18 19 20 20 19 19 18 18 17 17 15 15 14 14 13 10 8 7 8 9 9 10 9 8 7 7 7 7 6 7 7 7 7 7 7 8 10 12 13 14 13 13 16 16 16 19 21 22 24 25 26 27 25 22 21
31 31 30 30 31 32 30 28 29 28 28 28 27 25 24 22 22 22 22 22 22 22 21 21 20 20 20 20 20 18 18 21 22 22 20 19 19 18 17 17 16 15 14 13 13 11 8 8 8 7 7 7 7 5 4 4 4 4 4 4 4 5 6 7 7 7 8 10 12 13 13 14 16 16 17 19 20 21 22 24 25 26 25 22 21
30 30 30 29 31 32 30 29 29 27 27 28 27 26 25 23 22 23 22 22 22 22 22 21 20 21 21 20 20 18 19 22 24 23 22 21 19 17 16 16 16 15 14 13 13 12 10 9 8 6 6 6 5 2 2 2 3 4 4 5 5 6 6 6 7 7 8 10 11 13 14 15 16 17 18 19 21 21 21 23 27 27 26 25 26
29 29 30 29 29 31 30 28 27 27 27 28 28 27 25 23 24 23 22 22 23 22 22 22 21 21 21 20 20 19 20 23 25 24 23 21 20 18 16 16 15 14 14 13 12 12 11 10 10 7 5 5 6 5 5 4 4 6 6 7 8 8 8 8 7 7 8 9 11 12 14 15 17 18 19 19 21 21 22 25 27 28 27 27 29
26 27 29 29 29 30 29 28 28 28 27 28 28 27 24 23 24 24 22 23 23 22 22 22 21 20 21 20 19 19 21 22 24 25 23 22 20 17 15 16 15 13 13 13 11 12 12 10 9 8 7 7 7 7 8 8 7 5 4 8 10 10 10 11 8 7 8 11 13 15 16 17 18 19 20 20 19 20 21 22 22 23 25 26 28
24 27 29 29 30 30 29 29 29 28 28 29 29 27 25 24 23 23 23 22 22 22 21 21 21 20 19 19 18 18 20 20 21 24 25 23 20 15 13 15 14 13 13 12 10 12 12 10 8 8 9 9 8 8 9 9 9 6 3 7 8 10 12 10 7 7 11 14 16 17 18 18 20 21 20 18 17 17 17 18 18 19 21 22 23
26 28 28 29 31 31 29 29 29 29 28 29 30 27 25 25 23 23 23 23 22 22 22 21 21 20 19 18 18 19 19 17 19 23 26 25 20 13 12 14 14 12 13 13 11 11 12 11 9 8 9 9 8 7 7 8 8 6 4 7 8 10 10 6 4 8 13 16 17 18 18 19 20 19 16 14 14 14 15 17 17 18 19 18 17
28 29 29 29 30 30 30 29 29 29 28 28 30 27 25 26 26 23 23 24 22 22 21 20 20 20 20 18 17 19 20 18 19 23 27 28 22 14 11 13 13 13 13 13 12 11 13 13 11 10 10 11 10 9 8 9 9 5 3 6 8 9 7 4 6 12 16 16 15 16 18 20 19 15 13 13 13 13 16 18 18 20 20 16 16
29 30 30 30 29 29 29 29 29 29 27 27 30 27 24 26 25 22 23 24 21 20 22 20 19 21 22 19 17 18 21 20 20 23 28 29 25 17 12 11 13 13 13 14 14 13 14 15 15 13 12 11 11 10 9 10 11 7 3 4 7 8 7 8 12 16 18 16 14 17 19 19 16 13 12 13 13 14 17 19 20 23 22 20 19
29 29 29 28 27 26 27 28 29 29 27 27 28 27 25 25 24 22 24 23 20 21 23 20 20 23 23 19 17 18 20 21 21 24 28 30 28 22 15 11 12 14 15 15 16 15 14 15 16 17 15 13 12 11 11 11 12 10 7 4 6 8 10 12 14 16 16 15 16 19 19 16 13 12 12 13 13 15 16 16 18 23 24 23 24
29 29 28 27 26 25 26 29 29 29 28 28 28 27 27 26 25 24 24 22 21 22 22 20 20 22 21 18 17 17 19 20 22 26 28 29 30 27 19 13 12 13 15 15 15 15 15 14 14 15 17 17 16 13 12 12 12 11 10 9 9 10 11 13 14 15 14 14 18 18 15 13 13 12 12 14 15 16 15 15 17 21 22 23 26
28 28 26 26 25 25 27 28 28 28 28 29 30 28 27 27 27 26 25 23 23 23 21 19 20 20 20 21 20 18 18 19 22 27 28 28 30 30 25 17 12 11 13 16 15 14 14 15 15 13 14 15 16 15 14 13 12 11 10 11 11 11 11 12 14 14 13 14 18 17 14 13 12 12 13 16 18 18 16 17 21 21 20 22 25
28 28 26 25 25 26 28 30 30 30 31 32 32 30 28 28 27 26 26 24 24 23 21 20 20 20 20 22 21 19 19 19 21 25 28 29 30 31 29 21 13 8 10 12 14 13 13 15 16 14 13 12 12 13 14 14 13 11 10 10 10 10 10 12 14 14 14 16 19 16 13 12 12 11 14 17 19 19 17 19 22 22 21 23 26
27 27 26 25 26 28 30 32 32 32 32 32 32 31 29 29 27 25 25 25 25 24 22 21 20 19 19 20 20 20 19 19 20 23 27 29 30 31 30 24 16 10 8 7 8 10 11 12 12 14 14 13 11 11 13 14 13 11 9 9 8 9 11 13 14 14 17 19 18 14 13 12 11 11 13 17 18 17 18 19 21 21 22 25 26
26 27 26 25 27 29 30 31 32 32 33 33 32 32 30 29 27 25 24 24 25 24 22 20 19 19 19 19 20 21 20 20 21 23 26 29 30 30 31 27 21 16 11 6 6 8 8 7 9 12 13 13 12 11 13 14 13 11 9 8 9 10 12 15 15 16 19 18 14 13 14 12 11 11 13 17 17 15 17 19 19 20 23 25 25
26 26 24 24 26 28 29 30 31 31 31 31 31 31 31 30 28 25 23 24 25 24 22 20 19 19 20 19 20 21 21 21 23 24 26 29 30 30 30 29 26 21 17 12 10 8 7 6 8 11 12 11 11 11 13 14 14 13 11 11 12 13 14 16 16 16 18 15 11 14 14 11 11 12 14 16 14 13 16 18 18 19 22 24 24
25 24 23 22 24 27 29 31 31 31 30 29 27 27 28 29 28 25 24 25 24 22 21 21 20 20 20 20 20 22 21 21 24 26 27 29 31 31 31 31 29 25 22 20 16 13 10 8 8 9 9 10 11 12 15 16 16 15 14 14 14 14 15 17 17 16 17 15 12 14 13 10 11 13 14 15 13 13 16 18 17 19 22 22 21
25 23 22 21 22 26 29 31 31 30 29 28 27 27 28 28 27 25 26 26 24 23 22 22 21 21 20 20 21 21 21 22 24 28 30 31 33 34 33 32 31 29 27 25 21 18 15 13 11 10 11 12 14 16 17 18 19 18 16 15 15 15 16 19 19 20 20 18 16 16 13 11 11 12 14 15 12 14 19 18 15 19 21 19 18
25 22 21 19 18 23 29 30 31 30 28 27 27 27 28 28 25 23 25 25 24 23 23 22 22 21 21 22 23 23 23 23 25 27 29 31 33 35 35 34 32 30 29 27 23 19 18 17 15 14 15 16 17 18 18 18 18 18 17 16 17 18 20 21 20 20 20 18 17 15 11 10 11 12 15 14 12 16 21 18 15 19 20 17 17
24 21 21 18 17 22 26 26 27 29 28 26 24 23 24 25 23 21 23 25 24 23 21 21 22 22 22 22 23 24 23 23 24 25 25 27 31 33 34 33 31 29 28 26 22 19 18 20 20 19 18 19 19 19 19 19 19 19 18 18 18 20 21 18 15 15 15 13 12 11 10 11 13 13 14 14 13 16 20 18 17 19 18 15 17
22 20 21 19 19 22 25 24 25 27 26 25 24 23 23 23 21 20 21 23 24 23 21 20 21 22 22 20 21 21 20 20 22 24 24 24 26 29 31 30 29 28 25 24 23 21 19 20 22 22 20 20 20 21 21 20 20 19 19 18 17 17 16 14 12 13 13 12 13 13 12 12 13 12 13 15 15 16 17 17 18 19 17 14 17
21 20 20 20 21 23 23 23 24 25 24 23 23 23 23 22 20 18 19 21 24 24 22 21 21 23 22 20 19 20 20 19 19 22 23 22 22 26 28 27 26 25 23 22 24 25 23 21 21 21 22 21 20 21 21 20 20 19 17 17 16 16 15 15 14 15 15 14 14 13 12 12 13 14 16 18 16 15 16 16 18 19 17 15 17
21 20 20 21 22 22 21 23 23 23 23 23 22 22 22 22 20 18 17 19 23 24 23 22 23 23 23 20 18 19 21 21 19 19 20 20 20 23 26 24 23 24 23 22 23 25 25 22 19 18 20 20 19 19 19 19 19 19 17 17 17 17 16 17 17 17 17 17 16 16 17 18 18 19 19 17 13 13 16 17 17 18 17 15 16
21 20 22 25 26 25 24 25 25 24 25 24 22 21 22 21 21 21 20 20 21 22 22 22 23 22 22 22 20 18 19 20 19 18 18 19 20 23 25 24 23 23 23 23 24 24 23 22 20 18 18 18 18 18 18 18 19 20 19 19 18 18 17 17 17 16 16 16 17 18 19 20 20 19 16 12 11 15 18 18 18 18 16 15 16
17 18 21 24 25 24 25 26 26 25 26 26 24 23 22 21 22 23 23 23 23 22 23 23 24 22 21 23 22 18 16 18 19 18 17 19 21 25 27 25 23 23 23 23 23 22 21 21 20 19 18 18 18 18 19 19 20 20 19 19 18 18 17 17 15 15 15 16 16 16 15 15 14 13 11 12 14 16 18 20 20 18 15 14 16
17 20 23 24 23 23 24 25 25 23 24 25 24 23 22 22 22 23 23 23 23 23 22 22 23 23 22 23 23 19 16 16 17 18 19 21 23 26 27 26 24 24 24 24 23 21 19 19 19 19 19 19 18 18 18 20 20 20 18 17 18 18 18 17 16 16 16 15 14 12 10 10 11 11 12 15 16 18 21 23 21 17 15 15 16
21 26 29 28 26 25 24 25 25 23 23 24 23 22 22 22 22 22 21 22 22 22 20 19 21 22 22 22 23 21 17 15 17 18 20 22 24 26 27 26 25 24 24 23 22 20 20 20 20 19 19 19 19 19 19 20 20 19 18 19 20 19 18 16 15 14 13 11 11 10 11 13 15 15 16 18 20 23 25 24 20 17 15 14 16
20 26 29 28 27 26 25 25 25 24 24 24 22 22 22 22 22 21 20 21 22 21 19 19 22 25 25 25 24 22 20 19 20 22 23 25 27 28 26 25 24 24 22 22 22 22 21 21 20 20 19 19 19 19 20 20 19 19 19 20 20 20 19 18 17 16 16 16 16 16 18 19 18 17 18 21 24 25 24 21 18 15 13 15 20
17 23 27 27 26 25 23 22 23 25 25 24 22 22 23 22 22 21 20 20 22 22 19 19 22 24 26 27 26 26 25 24 25 26 27 28 29 29 27 24 23 23 22 21 21 22 21 21 20 20 21 20 20 20 21 20 20 19 19 20 20 19 18 18 17 17 18 18 18 18 19 19 18 17 19 20 20 19 18 17 15 14 16 20 24
17 21 26 26 24 22 20 20 22 23 23 23 21 22 23 23 22 21 19 18 21 22 20 19 20 22 25 27 29 30 30 28 27 27 28 29 30 30 28 25 24 23 23 22 21 21 22 22 22 22 22 23 22 22 22 21 21 21 21 21 21 20 19 17 17 16 16 16 16 16 16 16 16 17 17 17 16 15 15 14 14 17 20 23 22
18 22 26 27 24 21 19 20 22 22 23 23 21 21 23 23 22 21 19 19 21 23 21 19 19 21 25 29 31 31 32 30 27 27 28 29 30 31 30 28 26 24 23 23 22 22 22 22 22 22 23 24 24 23 22 21 21 21 21 21 21 20 19 18 17 17 16 16 16 17 18 18 18 18 18 18 17 16 16 17 19 21 22 21 19
20 23 26 27 24 21 20 21 22 22 23 23 21 20 22 23 22 21 21 21 22 23 22 21 19 19 24 30 31 30 32 32 30 28 28 29 30 30 31 31 30 28 26 25 24 23 22 22 21 21 21 20 21 22 21 19 19 20 20 21 20 19 19 19 19 18 17 16 17 18 19 19 19 19 19 18 18 19 20 21 21 21 21 21 22
20 24 26 26 24 21 20 20 22 22 23 24 23 21 21 22 22 22 21 21 22 21 21 21 19 17 20 27 31 31 31 30 29 29 28 27 28 30 31 32 32 31 30 28 26 25 24 23 22 22 21 20 18 18 17 16 17 19 20 20 20 19 18 18 17 16 16 17 17 18 19 19 19 20 20 21 21 21 22 23 22 23 23 24 23
22 24 24 24 22 19 18 19 20 21 22 23 22 21 20 21 22 22 21 20 21 21 21 21 21 20 20 25 32 34 31 27 26 27 27 27 27 28 30 31 32 33 32 31 30 28 25 24 23 23 22 20 18 17 16 16 18 20 21 21 21 21 21 21 21 20 20 20 20 20 20 19 19 19 20 21 21 21 22 22 22 21 21 20 19
21 23 21 21 21 18 17 18 18 18 20 22 22 21 21 21 21 21 22 22 22 24 23 22 20 20 22 27 34 35 31 25 23 24 25 26 26 26 27 28 31 32 33 34 33 31 28 27 26 24 23 20 18 17 17 17 19 20 21 21 22 24 24 25 25 25 24 23 23 23 22 22 21 21 21 21 20 21 21 21 20 20 21 21 22
18 19 18 18 18 17 16 17 17 18 19 21 21 21 22 22 21 21 23 23 24 25 25 19 14 14 20 27 32 33 29 25 22 21 22 24 25 26 26 27 28 31 33 34 33 31 30 29 28 26 25 24 22 19 18 19 20 22 21 20 20 20 20 20 21 22 23 23 24 24 24 24 24 24 22 21 20 20 21 21 22 22 24 24 25
13 15 15 14 14 14 13 15 16 17 17 19 20 20 20 21 21 20 21 22 22 22 21 18 15 15 18 24 28 29 28 26 23 21 22 23 24 25 26 27 28 30 31 31 32 32 31 30 29 27 27 27 26 24 23 22 22 23 23 22 21 21 21 22 22 24 24 25 25 25 26 26 27 26 25 22 21 20 21 21 21 21 21 22 22
8 11 12 11 11 12 13 14 15 15 14 14 15 15 14 16 16 15 14 16 17 15 15 17 18 17 17 20 24 26 27 26 24 22 21 23 23 24 24 24 26 29 29 28 28 29 30 30 30 29 28 27 26 24 23 23 23 24 25 25 24 24 24 25 25 24 24 22 21 20 20 20 21 22 23 22 21 22 23 24 24 24 24 24 24
6 8 9 9 11 13 13 13 14 14 13 13 13 13 14 16 18 16 13 15 17 15 13 15 18 19 17 19 22 24 24 23 23 22 21 22 23 24 22 20 21 25 27 26 25 26 27 29 30 30 27 25 24 23 23 24 24 25 26 26 26 26 26 26 25 24 23 22 21 19 18 18 18 18 19 21 23 25 26 27 27 27 26 25 25
8 10 12 13 14 14 12 10 12 13 13 13 15 16 16 16 18 17 16 17 19 19 17 16 18 20 21 21 22 23 23 23 23 22 21 22 23 25 24 21 20 22 24 24 24 24 24 24 25 25 24 23 23 24 24 25 26 27 27 27 27 27 27 27 27 27 26 24 22 21 21 21 21 21 22 24 25 26 27 28 28 27 25 24 24
11 13 13 14 17 17 15 12 12 14 14 13 14 15 15 15 15 16 17 18 19 20 20 20 20 21 22 23 24 25 25 24 23 22 22 23 25 26 27 26 26 25 24 24 25 25 24 22 22 22 23 24 24 25 25 26 26 26 26 26 26 26 25 26 26 26 24 22 21 21 22 23 24 25 26 27 27 27 28 28 27 25 23 22 22
Wind_Direction
175 172 171 172 171 169 169 166 163 162 161 159 163 167 167 165 163 164 170 174 175 175 174 170 164 159 154 152 150 146 142 139 137 135 133 133 134 136 135 132 128 125 121 116 112 113 110 104 101 96 95 90 79 74 65 54 55 52 45 40 32 24 14 2 345 326 328 337 337 335 338 339 339 339 340 342 344 343 341 340 341 341 339 336 336
170 170 169 169 168 167 167 165 163 162 162 163 167 168 167 164 161 163 171 175 176 176 174 170 165 161 157 155 153 149 146 142 140 139 139 138 139 139 138 136 133 128 123 118 116 116 114 108 99 92 92 88 80 78 67 56 59 53 38 32 23 14 6 356 343 324 323 331 334 335 338 339 339 340 342 344 345 343 341 339 340 341 340 337 336
166 166 167 167 166 166 165 165 164 161 161 166 169 167 166 163 160 165 171 174 175 175 173 169 165 163 159 157 154 151 148 145 144 145 143 141 141 141 141 139 135 130 126 123 122 119 114 108 102 95 89 83 77 77 65 51 52 46 28 17 9 6 359 346 333 324 322 325 330 334 337 340 341 340 343 344 343 342 340 337 337 340 341 338 337
166 165 165 164 165 168 167 166 164 162 163 169 170 166 163 159 160 168 172 172 174 174 170 168 166 164 161 159 156 153 151 148 147 146 145 145 145 142 141 140 135 132 131 128 126 123 117 110 105 100 96 86 78 77 66 51 45 33 20 14 7 2 353 341 333 328 322 320 326 333 337 340 342 342 344 344 341 341 339 335 336 339 341 339 338
168 167 166 165 168 171 169 167 164 164 167 171 171 166 160 157 163 172 173 172 173 171 168 168 166 164 162 161 158 156 154 151 149 148 149 148 146 143 142 141 137 135 133 131 130 125 120 117 111 105 101 92 84 76 57 47 43 27 20 13 5 359 349 339 334 329 324 321 324 332 340 342 343 346 348 344 340 340 338 336 336 339 340 339 339
169 167 167 169 171 171 169 167 166 167 169 170 167 163 157 157 166 173 173 173 173 169 168 169 167 166 165 163 160 158 155 153 152 151 151 149 147 145 144 142 139 137 134 131 130 129 125 121 115 108 105 98 91 82 61 45 33 19 16 9 359 355 349 344 338 332 331 329 327 335 344 344 347 351 348 343 340 339 337 337 337 339 340 339 339
168 167 168 170 171 171 168 165 167 171 171 166 163 159 156 160 169 175 175 173 172 169 169 170 168 168 167 164 162 159 156 156 155 153 152 150 148 147 146 143 140 138 137 136 135 133 129 125 127 132 133 136 141 142 137 112 59 30 13 3 2 358 350 346 340 339 342 336 332 343 347 344 350 351 343 340 341 340 340 338 335 337 339 339 338
166 167 168 168 169 170 168 167 169 172 170 165 161 157 158 166 173 174 174 173 171 171 171 170 170 169 167 164 163 161 159 158 157 155 154 153 151 148 147 146 145 143 142 141 138 135 138 148 162 167 164 162 168 168 160 146 117 75 11 354 11 5 355 350 345 348 347 336 335 348 347 344 349 345 340 343 344 342 343 340 332 333 335 336 337
166 167 168 169 169 168 169 171 173 171 168 164 160 158 162 171 173 173 174 174 171 172 172 170 170 169 166 165 163 162 162 161 160 159 157 154 152 151 150 150 149 148 146 144 143 146 158 172 180 179 173 164 155 154 156 154 142 115 67 38 39 24 7 358 353 352 345 335 338 348 345 344 347 342 341 348 344 339 341 340 333 331 333 332 334
165 166 167 168 169 167 168 172 172 168 166 163 160 160 165 171 172 173 175 173 172 174 172 170 172 169 166 166 165 164 166 165 164 163 160 157 154 154 155 155 154 153 152 151 152 159 175 184 173 157 154 146 135 135 142 143 133 113 92 70 56 47 34 19 6 356 343 335 337 343 343 344 343 340 341 343 338 335 338 338 333 331 332 329 329
162 164 164 166 171 172 171 171 168 164 165 164 161 163 167 171 173 175 175 173 174 175 171 172 173 170 168 168 166 167 170 169 167 164 161 159 158 157 158 159 159 159 159 159 160 166 175 171 157 150 146 137 129 122 121 122 113 98 85 70 54 41 32 25 18 4 348 337 333 335 340 340 336 336 337 333 331 333 335 335 333 330 328 325 324
160 162 164 167 172 176 174 168 164 163 166 167 165 165 168 172 174 176 176 175 175 174 172 174 173 171 171 170 168 171 175 173 170 166 163 161 160 160 160 162 164 164 165 168 167 166 164 157 153 158 162 156 143 122 107 109 94 68 49 31 17 8 5 5 5 1 352 341 332 327 331 335 331 327 328 327 326 328 329 331 333 328 322 322 322
162 163 166 168 172 175 172 165 163 165 167 170 169 167 169 174 175 176 177 175 175 174 174 175 174 173 173 170 170 176 178 176 174 170 166 164 160 160 163 165 168 170 172 174 171 168 167 165 164 178 198 189 175 186 269 288 314 330 337 333 320 312 313 323 338 346 344 336 325 318 321 325 320 318 324 325 321 321 322 325 329 326 321 324 325
163 166 168 170 171 171 168 165 166 167 168 172 172 168 171 177 175 175 177 175 175 176 176 177 176 175 175 173 173 178 179 179 179 174 169 166 162 162 165 169 172 175 177 176 176 175 174 176 183 192 197 179 180 211 226 226 261 283 296 302 298 292 283 283 300 323 329 324 315 310 313 315 310 311 318 321 318 316 316 320 325 323 321 325 328
165 168 170 172 170 170 170 169 169 171 172 175 172 170 176 178 172 173 178 177 176 178 177 177 176 175 176 174 173 177 179 179 181 179 172 169 168 165 165 172 176 177 177 176 178 181 179 183 195 198 187 182 201 227 223 215 228 245 275 295 296 294 283 271 276 304 321 320 318 317 317 315 311 309 312 315 315 317 320 323 326 324 323 328 332
170 169 171 172 170 171 173 172 171 173 174 175 173 173 176 173 168 173 178 176 177 178 177 177 177 175 174 174 173 173 173 177 185 185 179 174 173 168 164 173 176 175 178 178 177 183 186 187 187 182 183 196 221 242 237 230 229 229 281 311 307 300 293 280 277 310 323 321 320 320 315 311 310 309 311 313 315 318 322 325 330 332 331 333 333
175 173 175 175 172 173 174 174 174 174 172 173 175 175 174 171 171 174 176 175 176 177 177 177 177 174 173 175 172 165 168 180 190 191 186 181 178 170 163 173 177 176 181 183 180 185 193 193 188 185 195 212 228 237 235 225 216 224 300 324 313 302 299 292 292 315 319 317 317 315 309 307 311 314 318 323 324 323 318 316 326 339 340 336 332
177 178 179 177 172 172 173 174 173 172 171 172 174 173 169 168 172 174 175 174 174 177 177 174 175 175 172 173 173 168 175 188 194 193 191 187 183 174 163 175 184 182 183 185 186 192 195 192 190 192 199 210 219 226 227 214 204 213 305 324 310 303 303 298 300 309 313 315 316 311 305 309 319 327 335 337 339 340 330 324 332 340 337 331 330
178 178 179 177 174 172 173 174 173 171 169 170 173 173 165 162 168 172 173 173 172 175 174 170 173 174 171 177 184 181 183 191 194 194 193 192 190 181 170 182 190 186 187 190 191 200 203 200 201 201 199 203 210 221 227 214 206 214 245 306 311 307 306 303 303 309 314 315 313 308 307 315 326 336 341 340 343 347 342 340 345 344 335 327 328
176 176 177 177 177 175 174 175 173 170 168 166 168 170 164 162 167 170 170 172 173 173 173 173 175 173 173 182 188 186 189 192 193 194 194 195 195 188 179 188 192 189 196 196 192 200 207 209 213 214 213 213 214 222 229 219 212 218 225 256 293 295 296 298 302 310 313 309 306 307 312 320 328 334 337 337 338 340 342 347 352 351 345 336 331
173 176 176 175 177 178 177 175 172 169 167 162 161 163 164 165 167 167 168 172 172 171 173 174 172 172 179 189 189 190 198 198 195 195 196 197 198 192 185 190 195 197 203 200 195 200 205 209 215 217 218 223 226 231 232 223 217 220 224 235 257 276 288 294 301 312 314 306 305 311 318 322 325 330 332 331 332 334 342 355 356 352 350 344 335
173 173 173 172 174 175 173 171 169 165 163 160 159 160 163 165 166 165 167 170 170 170 172 173 174 179 188 193 193 195 198 198 196 197 197 199 200 197 192 193 200 201 201 202 203 206 208 213 219 220 218 221 228 233 233 226 220 221 226 235 250 270 282 289 298 307 310 306 304 307 314 318 321 330 332 328 330 335 348 0 358 351 349 347 339
172 168 168 169 169 169 169 170 168 165 163 163 161 160 162 164 165 165 167 169 170 171 172 175 180 185 187 190 194 195 193 195 199 199 198 200 202 201 198 197 198 190 182 193 205 210 214 217 220 220 219 217 221 227 229 227 225 226 231 240 254 268 278 287 295 299 301 301 299 301 311 317 320 331 332 326 327 338 351 357 353 349 347 345 341
163 159 162 163 163 165 169 171 170 166 164 163 161 161 164 165 165 165 167 169 169 168 170 175 180 182 182 186 192 192 191 195 201 203 202 201 202 203 201 199 202 195 173 174 197 204 210 217 218 217 217 217 219 224 228 231 233 233 236 246 260 271 278 286 292 295 294 293 295 302 311 313 317 329 330 322 325 340 351 350 348 347 345 343 342
159 157 159 160 161 163 164 167 169 167 165 164 162 162 164 165 166 167 166 166 166 166 170 176 179 180 182 186 190 191 192 196 199 202 204 203 203 204 202 202 208 208 198 200 218 211 206 207 207 206 208 211 217 226 234 238 240 239 239 251 263 268 277 283 287 291 288 287 298 308 306 306 315 324 323 319 324 340 345 341 343 345 345 345 345
156 153 155 157 160 162 160 162 166 167 166 166 165 165 166 167 168 169 168 167 167 170 176 183 186 186 186 188 190 191 192 194 196 199 203 204 205 205 204 207 212 214 212 217 224 219 208 189 184 191 201 212 222 234 243 246 245 242 240 248 256 260 268 272 274 280 279 278 295 302 296 302 315 318 319 319 326 343 340 332 338 345 345 344 344
152 148 150 154 159 163 164 164 165 166 166 167 166 167 170 171 170 171 173 172 173 178 185 190 191 189 187 189 191 191 190 192 195 196 199 203 206 207 207 210 213 215 218 221 222 224 226 219 205 204 214 224 234 245 251 250 248 246 248 254 259 259 259 260 263 267 267 270 284 288 289 302 312 314 318 317 327 343 331 324 338 347 342 339 341
158 153 152 154 159 166 168 168 167 167 167 168 169 170 174 175 176 179 181 179 181 188 192 192 191 189 188 189 190 190 191 192 196 199 200 202 204 206 207 210 213 215 218 220 224 229 235 239 241 239 239 242 247 253 256 256 253 251 252 257 259 258 258 260 260 259 258 261 269 272 280 300 309 311 314 314 327 334 321 321 344 345 333 334 344
161 159 157 157 163 168 169 169 169 169 169 172 175 178 181 182 182 186 188 188 190 193 193 191 191 192 192 192 190 190 193 198 203 207 208 206 206 206 206 209 212 215 217 220 223 228 231 233 237 241 244 245 247 249 250 250 251 251 253 258 260 258 257 256 255 255 256 258 260 263 275 299 305 305 306 310 325 325 315 322 343 336 327 335 347
158 162 162 162 165 165 165 168 170 171 171 173 176 181 186 188 189 190 192 193 195 195 193 193 195 196 197 198 196 196 200 204 208 212 213 212 210 209 209 209 210 213 217 218 219 222 224 225 227 232 237 238 237 237 237 238 242 245 250 259 262 257 252 250 250 257 264 268 271 274 283 291 289 291 298 306 314 313 312 322 333 325 322 338 349
157 161 164 168 170 168 167 169 171 173 174 175 175 174 175 182 189 191 191 193 195 195 196 200 199 196 197 198 199 202 207 210 211 213 214 214 213 211 211 211 210 212 214 214 212 212 216 221 222 225 230 232 231 232 234 235 239 243 249 258 262 258 255 257 261 264 268 273 278 278 277 275 276 282 292 296 296 299 307 318 323 319 323 341 349
165 165 165 166 168 170 171 171 171 174 176 177 175 169 166 171 180 187 193 198 199 199 203 206 201 195 195 198 202 207 210 210 211 214 215 217 216 212 210 210 210 210 210 210 209 209 211 217 222 224 227 231 232 233 234 235 240 246 252 258 262 263 262 264 266 264 263 265 267 269 271 273 276 278 280 280 283 294 307 312 315 319 325 336 341
166 162 159 161 164 168 171 170 171 174 174 173 172 170 170 173 176 178 182 189 194 199 206 208 204 199 200 204 207 210 211 211 212 214 215 216 214 208 205 206 205 203 202 202 206 209 211 217 223 226 228 232 235 237 238 240 243 248 251 251 253 256 258 260 259 257 255 254 255 257 261 264 266 267 268 272 283 299 305 305 308 313 316 324 332
165 164 167 170 172 173 172 171 173 176 176 176 177 177 178 180 179 174 169 170 179 190 198 203 205 206 207 209 211 212 213 212 213 212 211 212 208 202 199 198 198 200 201 203 206 209 212 217 224 229 232 234 237 238 240 242 244 247 248 247 249 254 257 258 256 254 253 253 253 254 257 258 258 258 263 279 297 299 297 297 298 299 303 316 326
169 173 177 178 178 178 177 175 176 178 179 181 183 182 181 182 181 179 177 177 180 186 193 198 202 205 207 209 211 214 213 210 209 209 207 206 203 198 196 194 194 197 201 203 205 208 211 217 224 231 234 235 235 237 240 243 245 245 245 245 249 254 256 258 259 258 258 259 260 262 266 266 264 267 280 294 293 288 289 290 289 291 301 314 318
174 181 186 185 181 182 181 178 176 179 182 185 185 183 181 179 179 181 185 188 189 191 195 199 202 204 206 210 212 214 211 205 206 209 208 206 203 198 195 194 193 195 198 202 205 210 214 219 225 230 233 235 237 239 243 246 247 246 245 247 252 254 254 256 257 258 258 258 258 262 268 273 278 284 285 283 280 280 282 284 285 292 304 311 313
180 184 188 187 182 182 183 181 181 183 185 186 184 180 177 177 178 180 185 190 194 194 193 194 197 199 202 206 209 210 207 204 206 210 209 207 206 202 199 197 196 197 201 206 210 213 218 222 226 230 233 236 239 242 247 250 250 248 248 250 252 253 254 254 253 255 259 261 260 266 276 283 286 283 276 272 273 275 276 279 285 294 300 308 313
184 183 184 182 181 182 182 181 182 184 183 181 180 179 178 179 180 181 183 188 192 191 190 189 190 193 197 200 203 203 201 198 199 201 201 202 203 203 202 201 201 203 207 211 214 216 220 225 230 233 235 238 239 242 246 250 251 250 250 250 250 251 251 253 253 256 263 269 271 274 278 280 279 277 272 269 269 269 272 278 287 295 304 314 311
183 183 181 178 179 182 183 180 179 180 179 178 179 181 182 181 180 179 180 183 185 187 191 191 189 191 195 197 197 197 196 194 194 195 197 200 203 204 204 205 207 209 211 213 214 216 221 227 232 235 236 239 240 242 244 248 250 251 252 254 255 253 250 251 253 254 256 259 264 267 270 269 267 266 266 266 267 271 277 285 294 305 312 311 304
185 187 188 184 179 181 183 181 179 178 178 178 180 182 183 183 182 181 182 182 182 186 194 196 189 189 193 195 195 195 195 194 195 196 198 202 204 206 206 208 210 212 212 212 212 216 221 225 228 231 235 238 239 239 241 244 247 249 251 253 255 255 252 252 254 254 254 257 263 268 270 270 272 275 277 279 282 285 287 294 304 307 302 299 298
191 192 194 192 187 183 183 183 182 181 180 180 182 185 187 188 188 187 188 189 185 185 193 200 197 194 195 198 201 202 200 198 198 199 201 204 206 207 208 210 211 212 211 212 214 220 224 226 227 229 232 234 235 235 237 240 243 247 251 254 254 253 253 253 254 256 257 259 264 269 272 274 275 278 281 283 285 285 287 292 295 292 289 290 297
192 190 189 188 186 184 183 183 184 186 186 186 188 190 191 191 190 190 193 196 191 187 190 199 204 205 202 201 203 204 202 200 200 202 205 207 209 210 212 213 214 215 216 216 217 222 228 232 234 236 241 241 236 230 231 237 244 249 254 258 258 257 256 256 255 255 258 263 269 272 273 273 271 270 270 270 271 274 278 281 282 283 284 287 289
191 186 182 182 184 186 186 185 185 187 189 192 194 193 191 191 193 195 198 200 196 194 195 198 203 210 212 207 203 201 199 198 200 203 206 209 212 215 217 218 219 219 221 221 221 223 228 234 237 241 250 255 246 232 228 236 247 254 258 259 260 261 261 260 258 257 259 264 269 273 275 275 270 267 266 266 268 271 273 272 273 275 278 281 282
182 178 177 179 183 188 190 188 186 186 188 191 193 193 191 191 194 197 200 201 198 200 205 206 206 209 211 205 199 197 195 195 198 203 207 210 214 217 220 222 222 221 221 222 222 223 226 231 235 239 248 254 249 240 238 242 250 257 260 259 258 260 262 264 266 268 267 267 266 267 271 275 275 274 274 273 273 274 275 275 277 278 280 283 289
177 173 174 177 182 187 190 189 186 186 186 188 190 193 194 194 194 195 198 199 198 201 208 213 209 204 200 196 193 193 194 195 198 203 207 210 213 217 221 224 225 223 222 222 222 223 226 229 233 239 248 251 246 243 244 246 250 255 258 257 257 258 260 261 261 261 261 261 262 261 262 264 268 271 274 275 276 277 279 282 285 287 287 289 293
180 176 172 175 180 183 186 186 186 187 186 186 188 192 196 196 196 195 196 198 201 204 208 208 197 184 186 189 191 192 195 199 203 207 211 212 215 217 219 222 224 224 223 222 221 222 225 227 230 237 244 247 245 245 247 248 249 252 255 257 259 262 266 268 267 264 260 258 258 258 257 259 261 263 266 271 275 277 280 281 281 282 283 285 287
181 176 168 171 180 184 187 189 189 189 188 189 192 196 196 195 195 195 196 198 201 202 202 199 189 177 178 184 190 195 200 204 209 214 217 218 218 218 219 220 220 220 220 221 221 221 224 227 230 233 238 242 245 248 248 248 249 250 252 256 260 265 270 272 271 267 264 262 259 256 253 254 257 258 259 264 269 273 277 279 280 281 282 283 284
166 151 141 148 170 184 191 195 191 188 189 193 198 202 200 196 193 190 186 187 190 191 192 195 195 189 184 186 193 199 204 209 215 219 221 221 220 220 221 219 215 211 212 216 218 221 225 227 228 230 234 239 242 244 245 246 248 249 251 256 260 265 269 271 269 266 264 264 264 259 254 257 261 258 255 259 266 272 276 279 281 283 284 284 284
177 158 158 172 186 190 193 193 189 187 189 191 192 196 198 197 195 194 189 186 189 191 194 197 201 203 206 205 202 199 200 206 214 219 222 221 219 218 217 213 207 205 207 210 214 220 226 226 226 228 232 235 237 238 240 243 247 249 252 257 260 263 266 269 271 273 273 273 273 270 269 272 274 267 261 263 268 273 276 278 281 284 286 285 285
188 188 189 194 199 203 204 196 184 185 190 192 192 195 197 196 196 197 195 191 193 198 204 208 208 211 217 219 214 207 204 206 209 213 217 218 217 215 213 210 208 208 210 213 216 221 224 223 222 223 225 228 233 237 241 245 248 251 255 260 264 267 268 266 266 269 271 272 273 273 273 273 273 270 267 267 268 270 274 277 281 284 287 286 285
201 200 198 198 205 211 211 199 188 191 197 202 204 205 203 200 198 196 194 196 200 205 209 212 213 214 217 219 217 213 207 202 201 206 214 218 221 221 221 220 220 220 220 219 220 221 221 219 220 223 228 233 237 241 245 249 253 256 261 265 269 271 271 267 265 265 266 268 272 275 274 272 269 267 267 267 268 269 273 276 278 280 282 283 283
Height
771 774 777 779 782 784 786 789 791 794 796 799 802 805 807 809 811 813 815 818 820 822 824 825 826 828 829 830 831 832 833 834 836 837 838 840 841 843 845 846 847 848 849 849 850 851 852 853 853 853 854 854 854 855 856 856 856 856 856 856 856 856 856 856 855 854 852 851 850 849 848 846 845 844 842 840 839 837 834 832 830 827 824 821 818
769 772 775 777 780 782 785 788 790 792 795 799 803 805 807 809 810 812 815 818 820 822 823 825 826 827 828 830 831 832 833 834 836 837 838 840 842 844 845 846 847 848 849 850 851 852 853 853 854 854 854 854 854 855 856 857 857 857 857 857 857 857 857 856 856 854 853 851 850 849 847 846 845 844 842 841 839 837 834 831 829 827 824 821 818
767 770 773 775 778 781 784 787 790 792 795 799 802 805 807 808 810 812 815 817 819 821 823 824 826 827 828 830 831 832 833 834 836 837 838 840 842 844 845 846 847 848 849 850 851 852 853 853 854 854 855 855 855 856 857 857 857 857 858 858 858 857 857 857 856 855 853 851 850 848 847 846 845 844 843 841 839 837 835 831 828 826 824 821 818
765 768 771 774 778 781 784 787 789 792 794 799 802 804 806 807 809 812 814 817 819 821 822 824 825 826 828 829 830 832 833 834 836 837 839 841 842 843 844 846 847 848 849 851 852 853 853 854 854 855 855 855 856 857 857 858 858 858 858 858 858 857 857 857 856 855 854 852 850 848 847 846 845 844 843 842 840 838 835 832 828 826 824 821 818
764 767 769 773 777 781 784 786 789 791 795 798 801 803 805 806 809 812 814 816 818 820 821 823 825 826 827 829 830 831 832 834 835 837 839 840 841 843 844 846 847 848 849 851 852 853 853 854 855 855 855 856 856 857 858 858 858 858 858 858 858 857 857 856 856 855 854 852 850 849 848 847 846 845 844 842 840 838 836 832 828 825 823 820 817
762 765 768 772 776 780 783 785 788 791 795 798 799 802 803 805 808 811 813 815 817 819 821 822 824 825 827 828 829 830 832 834 835 837 838 840 841 843 844 845 847 848 849 851 852 853 853 854 854 855 855 855 856 857 858 859 859 859 858 858 858 857 857 856 855 854 853 852 850 849 848 847 846 845 844 843 840 838 835 832 827 824 822 820 817
761 764 768 771 775 779 782 785 788 791 794 796 798 800 802 805 808 810 812 815 816 818 820 821 823 825 826 827 829 830 831 833 835 836 838 839 840 842 843 845 847 848 849 850 851 852 853 853 853 853 853 853 854 855 856 857 858 858 858 858 858 857 856 856 855 854 853 852 851 849 848 848 847 846 845 844 841 838 835 831 827 824 821 820 817
759 763 767 770 774 777 781 784 788 791 793 795 797 799 802 805 807 809 812 814 815 817 819 821 822 824 825 827 828 829 831 832 834 835 837 838 840 841 843 845 846 848 849 850 851 852 852 852 852 852 852 852 853 853 854 855 857 857 858 857 857 857 856 856 855 854 853 852 851 850 849 848 848 846 845 843 840 838 835 832 828 825 822 819 817
758 761 765 769 773 777 780 784 788 790 792 793 795 798 801 804 806 809 811 813 815 816 818 820 822 823 825 826 827 829 830 832 833 835 836 838 839 841 843 844 846 847 848 849 851 851 851 851 851 852 853 853 853 854 854 855 855 856 857 857 857 856 856 856 855 854 854 853 851 850 850 849 848 847 845 843 841 838 836 833 830 826 823 820 817
756 760 764 768 772 776 780 784 786 788 790 792 794 797 800 803 805 808 810 811 813 815 817 819 821 822 823 825 827 828 830 831 832 834 835 837 839 840 842 844 845 846 847 849 850 850 850 851 852 853 853 853 854 854 854 854 854 855 856 856 857 857 856 856 855 855 854 853 852 851 850 849 848 847 845 844 842 839 836 833 829 826 824 820 816
754 759 763 767 772 776 779 782 784 786 788 791 793 796 799 802 804 807 809 810 812 814 816 818 819 821 822 824 826 827 828 830 832 833 835 837 838 840 841 843 844 846 847 848 849 849 850 851 852 852 853 854 854 855 855 855 854 855 855 856 856 857 857 856 856 855 855 854 853 852 851 850 849 847 846 844 841 838 835 833 830 826 824 821 816
754 759 763 767 771 775 778 780 781 784 786 789 792 795 798 800 803 805 807 809 811 812 814 817 818 820 821 823 825 826 827 829 831 833 834 836 838 839 841 842 844 845 847 848 848 849 849 851 852 852 853 854 854 855 855 855 855 855 855 856 856 857 856 856 856 855 855 854 853 852 851 850 848 847 845 843 840 838 836 833 831 827 824 821 818
753 758 762 766 770 773 775 777 779 782 784 788 791 793 796 799 801 804 806 807 809 811 813 815 816 818 820 822 823 825 826 828 830 832 834 835 837 839 841 842 843 845 846 847 848 849 849 851 851 852 853 853 854 855 855 855 856 856 856 855 856 856 856 856 855 855 854 853 853 852 851 850 848 846 844 842 840 838 836 833 831 828 825 822 819
753 756 760 764 767 770 773 774 777 780 783 787 789 791 795 797 799 802 804 806 808 810 811 813 815 817 818 821 822 823 825 827 829 832 834 835 837 839 840 842 843 845 846 847 848 849 850 851 851 852 852 853 853 854 855 855 855 855 855 855 855 855 855 855 855 854 853 853 852 851 850 849 847 845 843 842 840 838 836 833 830 828 825 822 819
752 755 758 762 764 767 770 773 776 779 782 785 787 790 793 795 797 800 803 804 806 808 810 812 814 815 817 820 821 822 825 827 830 832 834 835 837 838 840 841 843 844 845 846 847 848 849 850 851 851 851 852 853 854 854 854 854 855 854 854 854 854 853 853 853 853 852 852 851 850 849 848 846 844 842 841 840 838 836 834 831 828 826 822 819
751 754 757 759 762 765 768 771 774 777 780 783 785 788 791 793 795 798 801 803 805 807 809 811 812 814 817 819 820 822 826 828 830 833 835 836 837 838 839 841 842 843 845 845 846 847 848 849 850 850 851 851 852 853 853 853 854 854 854 853 853 853 852 852 852 852 852 851 851 850 848 846 845 843 841 840 839 837 835 832 830 827 825 822 818
750 753 755 758 760 763 766 769 772 775 778 780 782 785 788 790 794 797 800 802 804 806 808 809 811 814 816 818 819 822 826 829 830 832 834 836 837 838 839 840 842 843 844 845 846 846 847 848 849 849 849 850 851 851 851 852 852 853 853 853 853 853 852 851 851 851 851 850 850 849 847 845 843 841 840 839 838 836 833 830 828 826 824 821 818
748 751 754 756 759 761 764 767 770 773 775 777 780 783 786 789 793 796 798 800 803 805 807 809 811 813 815 817 818 820 824 827 829 831 833 834 836 837 839 840 841 842 843 844 845 846 846 847 848 848 847 848 849 849 850 850 851 851 852 852 852 852 852 851 850 850 850 849 848 847 845 843 842 840 839 838 837 835 833 830 828 826 823 820 817
746 749 752 754 757 759 762 765 768 770 773 775 778 781 784 787 791 795 797 800 802 804 806 809 811 811 813 816 817 818 821 824 826 829 831 833 835 836 838 839 840 841 842 843 844 844 844 845 846 846 846 847 847 848 848 849 849 850 851 851 851 851 850 850 850 849 848 847 846 845 843 841 841 840 839 838 836 835 833 831 829 826 823 820 817
744 748 750 753 755 757 760 764 766 768 771 773 776 780 783 786 790 794 796 799 802 803 805 807 809 811 813 815 815 817 819 821 824 827 829 831 833 835 836 838 839 840 840 841 842 843 843 844 845 845 845 846 846 847 847 847 847 848 849 850 850 850 849 849 849 848 847 846 845 843 841 841 841 840 839 837 836 834 832 830 828 826 823 820 817
742 746 748 751 754 756 759 762 764 767 770 772 775 779 782 786 789 792 795 798 800 802 804 806 808 810 813 814 815 816 818 820 822 824 827 829 831 833 834 836 837 838 838 839 840 841 841 842 842 843 844 844 845 846 846 846 846 846 847 848 848 848 848 848 847 846 845 844 843 842 841 841 840 839 838 837 835 833 831 829 828 826 823 821 817
741 744 746 749 753 756 758 761 764 766 769 771 774 778 781 785 788 791 794 796 799 801 804 806 808 810 812 814 815 815 816 818 820 822 824 827 828 831 832 833 834 835 836 837 838 839 840 840 840 841 842 843 843 844 845 845 844 844 845 846 847 847 847 847 846 845 844 843 842 841 841 840 839 838 837 836 834 832 830 829 827 825 823 821 817
739 742 745 749 752 755 757 760 762 765 767 769 772 776 780 784 787 789 792 794 797 800 803 805 808 809 810 812 813 814 815 817 818 820 822 824 826 828 830 831 832 833 834 835 836 837 838 838 838 839 840 841 842 843 844 844 843 843 844 844 845 846 846 845 845 844 843 842 840 840 840 839 838 837 836 835 833 832 830 828 826 824 822 820 817
738 741 745 749 751 753 756 758 760 763 765 768 771 775 779 783 786 788 791 793 795 798 801 803 805 807 809 810 812 813 814 815 817 818 820 822 824 826 828 830 831 831 832 833 834 834 835 835 836 837 838 839 840 841 842 842 842 842 842 843 843 844 844 844 843 842 841 840 839 839 838 838 837 836 836 834 832 831 830 828 826 824 821 819 816
737 741 745 747 750 752 755 758 760 762 765 767 770 773 777 781 784 787 790 791 794 796 799 801 803 805 807 808 810 811 812 813 814 816 818 820 821 823 825 827 828 830 831 832 832 833 833 834 835 836 837 838 839 840 841 841 841 840 841 841 842 842 842 842 841 840 840 839 838 838 837 837 836 836 835 833 832 831 829 827 825 823 820 818 815
737 741 744 746 749 751 754 757 760 762 765 767 769 772 775 779 782 786 788 790 793 795 797 800 802 803 804 806 808 809 810 811 812 814 816 817 819 821 823 825 826 828 830 831 831 832 833 833 834 835 836 837 838 839 839 840 839 839 839 839 839 839 839 839 839 838 838 837 837 836 836 835 835 834 833 832 831 830 828 826 824 822 820 817 814
736 739 742 745 748 750 753 756 759 762 765 767 770 773 775 777 780 783 785 788 791 793 795 797 799 800 801 803 805 807 808 808 809 811 813 815 816 819 820 822 824 826 827 828 830 831 832 833 834 835 836 836 836 837 837 838 838 837 837 837 837 837 837 837 836 836 835 835 835 835 834 834 834 833 832 831 830 829 827 825 823 822 820 817 815
734 737 740 743 746 749 751 754 757 760 763 766 769 771 773 776 778 780 782 784 787 790 792 793 795 796 798 800 802 804 805 805 805 806 808 810 812 814 816 818 820 822 824 826 828 830 831 832 833 834 834 834 835 835 835 835 835 835 835 834 834 834 834 834 834 833 833 833 833 833 833 833 832 832 831 830 829 828 826 824 823 821 819 817 815
732 735 739 743 746 748 751 753 756 759 761 764 767 769 771 773 776 778 780 782 785 786 788 790 792 794 796 797 798 799 801 801 801 803 804 806 808 810 812 814 816 819 821 824 826 828 829 830 831 832 832 832 832 832 833 833 833 832 832 832 832 832 831 831 831 831 831 831 831 831 831 831 831 831 830 829 828 827 825 824 823 821 818 817 815
730 734 738 742 746 748 749 752 755 757 759 762 765 768 770 773 775 776 778 780 782 784 786 788 790 792 793 794 795 796 798 799 800 801 803 805 807 808 810 812 814 816 819 822 824 826 827 827 828 829 829 829 829 829 830 830 830 830 829 829 829 829 829 829 829 829 829 829 829 829 830 830 829 829 829 828 827 826 824 823 822 820 817 816 814
730 734 738 741 744 746 748 751 753 756 758 760 763 765 768 771 774 775 776 778 781 783 785 786 788 790 791 792 794 796 797 798 799 800 801 804 806 807 809 811 813 815 817 820 822 823 824 825 825 826 827 827 827 827 828 828 828 827 827 827 827 827 827 827 827 827 828 828 828 828 828 828 828 827 827 826 825 824 823 822 821 819 817 815 814
729 732 736 739 742 745 748 750 752 755 757 759 761 763 765 768 771 773 775 777 779 781 783 785 786 787 789 791 793 794 795 796 797 799 800 802 804 806 808 809 811 813 815 817 819 820 821 822 823 823 824 824 824 825 825 825 825 825 825 825 824 824 825 825 825 825 826 826 826 826 826 826 826 825 825 824 823 823 822 821 819 818 816 815 814
728 731 734 737 741 744 747 749 751 754 755 757 759 761 763 766 768 771 773 776 778 780 782 783 784 786 788 790 791 792 793 795 796 797 799 801 802 804 806 808 810 812 813 815 816 817 819 820 820 821 822 822 822 823 823 823 823 823 823 823 823 823 823 823 823 823 823 823 824 824 824 824 824 823 822 822 822 821 821 820 818 817 815 814 813
728 730 732 734 738 740 742 745 748 750 753 755 758 760 762 763 766 768 771 773 776 778 780 781 783 784 786 788 790 791 792 794 795 796 798 799 801 803 805 807 809 810 811 812 813 815 816 817 818 819 819 820 820 820 821 821 821 821 821 821 821 821 821 821 820 820 821 821 821 821 821 821 821 821 821 820 820 820 819 818 817 815 814 813 811
728 731 733 736 738 740 740 742 744 747 750 752 755 757 759 761 764 766 768 770 772 774 776 778 781 783 785 787 788 789 791 793 794 796 797 798 800 802 804 806 807 808 809 810 811 812 813 815 816 817 817 818 818 818 818 818 819 818 818 818 819 819 818 818 818 819 819 819 819 819 819 819 819 819 819 819 818 818 817 816 815 814 813 812 810
726 730 734 737 739 741 742 741 743 745 748 750 752 754 756 759 761 764 766 769 770 772 774 776 779 781 783 785 787 788 790 792 793 794 796 797 798 800 801 803 804 806 807 808 809 810 811 812 813 814 815 815 816 816 816 816 816 816 816 816 816 816 816 816 816 816 817 817 817 817 817 818 818 818 818 817 817 816 815 814 813 812 811 810 809
724 726 730 733 736 738 740 741 741 744 747 749 751 753 754 757 759 762 765 767 768 770 773 775 777 779 781 783 785 787 789 791 792 793 794 795 797 798 799 800 802 803 804 805 807 808 809 810 811 812 812 813 813 814 814 814 814 814 814 814 814 814 814 814 814 814 814 815 815 815 816 816 816 816 816 815 814 813 813 812 811 810 809 809 808
723 725 728 731 733 736 737 738 739 742 745 747 749 751 753 755 758 760 762 764 766 768 770 772 773 775 777 779 782 784 787 789 790 791 792 794 795 796 797 798 799 801 802 803 804 806 807 808 808 809 810 810 811 811 812 812 812 812 812 812 812 812 812 812 812 812 812 813 813 814 814 814 814 814 813 812 812 811 810 810 810 808 808 807 806
724 727 729 730 731 734 735 736 737 740 743 745 747 749 751 753 755 757 759 761 763 765 768 769 770 771 773 776 779 781 783 785 786 787 789 791 792 793 795 796 797 798 799 800 802 803 804 805 806 807 807 808 808 809 809 809 809 810 810 810 809 809 809 810 810 810 810 811 811 811 812 811 811 811 810 810 809 809 809 808 808 807 806 805 804
724 727 729 729 731 733 735 736 737 739 741 743 745 747 749 751 752 754 756 759 761 763 764 766 767 768 770 772 774 777 779 781 782 784 786 787 789 791 792 793 794 795 796 797 799 800 800 801 802 803 804 804 805 806 806 806 807 807 807 807 807 807 807 807 808 808 808 808 809 809 809 809 809 809 808 808 807 807 807 806 806 805 804 803 802
722 724 726 728 730 732 733 735 736 738 740 742 744 745 747 749 750 752 754 756 758 759 761 762 764 765 766 767 769 772 775 777 779 781 782 784 785 787 788 790 791 792 793 795 796 797 797 798 799 799 800 800 801 802 802 803 804 804 805 805 804 804 805 805 805 806 806 806 807 807 807 807 807 807 807 806 806 806 805 805 804 803 802 801 800
719 720 723 726 728 730 732 733 735 737 738 740 741 743 744 746 748 750 752 753 754 756 758 759 761 762 762 763 765 768 770 772 775 778 779 780 782 783 784 786 787 789 790 791 792 794 795 795 796 796 796 797 797 798 799 800 802 802 802 802 802 802 802 803 803 803 804 804 804 805 805 805 805 805 804 804 804 803 803 802 802 801 800 799 798
716 718 721 724 726 728 730 731 733 735 736 737 739 741 742 744 746 748 749 750 751 753 754 756 757 759 759 760 761 765 767 769 771 774 775 777 778 779 781 782 783 785 787 788 789 791 792 792 793 793 793 794 794 795 796 797 799 800 800 800 800 800 800 801 801 801 802 802 802 803 803 803 802 802 802 802 801 801 800 800 799 798 797 796 795
715 717 720 723 725 727 729 730 731 732 733 735 737 739 741 742 744 745 746 747 748 750 751 752 754 755 756 757 759 762 764 766 768 770 772 773 775 776 777 778 779 781 782 784 785 787 788 789 790 790 791 791 792 792 793 794 796 797 797 798 798 798 798 798 799 799 799 800 800 800 800 800 800 800 800 799 799 798 798 797 796 795 795 794 793
715 716 718 720 723 725 726 727 729 730 732 733 736 737 739 740 741 742 743 744 745 746 748 749 750 751 752 754 757 759 761 764 765 767 768 770 771 772 774 774 775 777 778 779 781 783 784 786 787 787 788 789 789 789 790 792 793 794 794 795 795 795 795 795 796 796 796 797 796 797 797 797 797 797 797 797 797 796 795 795 794 793 793 792 791
715 715 717 719 721 723 724 726 728 729 730 731 732 734 735 736 737 739 740 741 742 743 744 745 748 750 750 752 754 757 759 761 763 764 765 766 767 769 770 771 771 772 773 775 777 779 780 782 783 784 785 785 786 787 788 789 790 791 791 792 792 792 792 792 793 793 793 793 793 793 794 794 794 794 794 794 794 793 793 792 792 791 790 790 789
715 716 717 719 721 723 724 725 726 727 728 729 730 731 732 734 735 736 737 738 739 741 742 744 747 748 749 751 753 755 757 759 760 761 762 763 764 765 766 767 767 768 770 771 773 775 776 778 779 780 781 782 782 784 785 786 787 788 788 789 789 790 790 790 790 790 790 790 789 789 789 789 790 790 790 791 791 791 790 790 789 788 788 787 786
716 716 717 719 722 724 725 725 726 727 728 729 731 732 733 733 734 735 735 736 738 740 742 744 746 747 748 749 751 753 754 756 757 759 760 760 761 762 763 763 764 765 766 768 770 771 773 774 775 776 778 778 779 780 781 782 784 784 785 786 787 787 787 788 787 787 787 787 786 786 786 786 787 787 788 788 788 788 787 787 786 785 785 784 783
715 715 717 719 721 723 724 724 725 726 728 729 730 731 732 733 733 734 735 737 738 740 741 743 744 745 746 748 749 750 751 753 754 756 757 757 758 759 760 760 761 762 764 765 767 768 769 771 772 773 774 775 776 777 778 779 780 781 782 783 783 784 784 784 784 784 784 784 784 784 784 784 784 785 785 785 785 785 784 784 783 782 782 781 780
714 715 717 718 720 721 722 723 724 725 726 728 729 731 732 732 732 733 734 736 737 738 740 741 742 743 745 746 746 747 748 749 750 752 754 755 756 757 758 758 759 760 761 763 764 766 767 768 769 770 771 772 773 774 775 776 777 778 778 779 779 780 781 781 781 781 781 781 782 782 782 782 782 782 782 782 782 781 781 780 780 779 779 778 778
714 715 716 717 718 719 721 722 723 725 726 727 729 730 731 731 732 732 733 734 735 737 738 739 740 741 742 742 743 744 744 745 747 749 751 752 753 754 755 756 757 758 759 760 761 763 764 765 766 768 769 769 770 771 772 773 774 774 775 776 776 776 776 777 777 778 778 778 779 779 779 779 779 779 778 778 778 778 778 777 777 777 776 776 775